O3B FM7 (40080 NORAD) Tracking and Keplerian Element Data

This shows tracking and keplerian element data for the satellite.

Feedback or suggestion? Click here.




ElementValue
Catalog40080
NameO3B FM7
Epoch Orbit20887
Epoch Day353.15040244
Epoch Year2025
RAAN356.6158
Inclination0.06
Eccentricity0.0004517
Argument of Perigee275.7267
Mean Anonmoly87.6082
Mean Motion5.00115498
Decay Rate-1.5E-07
L11 40080U 14038B 25353.15040244 -.00000015 00000+0 00000+0 0 9991
L22 40080 0.0600 356.6158 0004517 275.7267 87.6082 5.00115498208876



Live tracking and technical data element details for O3B FM7 (NORAD 40080). O3B FM7 can be tracked NOW for your location showing map with azimuth and elevation plus other details from your city location.







IsCatalogInMostPopularTable: catalog: 40080, numindb: 430
Update: records affected: 1



GetName: 40080 O3B FM7

Hit Count: updated at: Sat, 07 Mar 2026 06:28:52 GMT